FW0689 Weather Reports


Display with metric or nautical units.
time (UTC)temp
F
wind
direction
speed
MPH
gust
MPH
rain 1hr
in
rain 24hr
in
rain mn
in
humidity
%
barometer
mb
20260506204433 48 2 0.0 0.0 0.00 0.00 0.00 40 1016.7
20260506203530 49 1 0.0 0.0 0.00 0.00 0.00 40 1016.7
20260506202530 49 1 0.0 0.0 0.00 0.00 0.00 40 1016.5
20260506201629 49 336 0.0 0.0 0.00 0.00 0.00 40 1016.5
20260506200629 49 344 0.0 0.0 0.00 0.00 0.00 40 1016.4
20260506195631 49 360 0.0 0.0 0.00 0.00 0.00 40 1016.4
20260506194629 49 360 0.0 0.0 0.00 0.00 0.00 40 1016.2
20260506193630 49 45 0.0 0.0 0.00 0.00 0.00 41 1016.3
20260506192629 49 45 0.0 0.0 0.00 0.00 0.00 41 1016.2
20260506191629 49 45 0.0 0.0 0.00 0.00 0.00 41 1015.9
20260506185631 50 45 0.0 0.0 0.00 0.00 0.00 41 1016.0
20260506184630 50 22 0.0 0.0 0.00 0.00 0.00 41 1015.7
20260506183630 50 22 0.0 0.0 0.00 0.00 0.00 40 1015.7
20260506182729 50 22 0.0 0.0 0.00 0.00 0.00 41 1015.6
20260506181729 50 22 0.0 0.0 0.00 0.00 0.00 41 1015.5
20260506180828 50 65 0.0 0.0 0.00 0.00 0.00 41 1015.2
20260506175828 50 22 0.0 0.0 0.00 0.00 0.00 41 1015.2
20260506174828 50 22 0.0 0.0 0.00 0.00 0.00 41 1015.1
20260506173829 50 28 0.0 0.0 0.00 0.00 0.00 41 1014.9
20260506172928 51 22 0.0 0.0 0.00 0.00 0.00 41 1015.0
20260506171930 51 59 0.0 0.0 0.00 0.00 0.00 41 1014.8
20260506165930 51 54 0.0 0.0 0.00 0.00 0.00 41 1014.8
20260506165029 51 22 0.0 0.0 0.00 0.00 0.00 41 1014.8
20260506164029 51 57 0.0 0.0 0.00 0.00 0.00 41 1014.9
20260506163030 51 62 0.0 0.0 0.00 0.00 0.00 40 1014.8
20260506162128 51 37 0.0 0.0 0.00 0.00 0.00 41 1014.8
20260506161131 51 86 0.0 0.0 0.00 0.00 0.00 41 1014.8
20260506155130 51 68 0.0 0.0 0.00 0.00 0.00 41 1014.9
20260506153128 51 59 0.0 0.0 0.00 0.00 0.00 41 1014.7
20260506151130 50 54 0.0 0.0 0.00 0.00 0.00 41 1014.8
20260506145128 50 66 0.0 0.0 0.00 0.00 0.00 41 1014.6
20260506144130 51 69 0.0 0.0 0.00 0.00 0.00 41 1014.6
20260506143130 51 46 0.0 0.0 0.00 0.00 0.00 41 1014.6
20260506142130 51 64 0.0 0.0 0.00 0.00 0.00 41 1014.6
20260506141229 51 50 0.0 0.0 0.00 0.00 0.00 40 1014.7
20260506135328 50 44 0.0 0.0 0.00 0.00 0.00 41 1014.6
20260506134330 50 29 0.0 0.0 0.00 0.00 0.00 41 1014.6
20260506133329 50 60 0.0 0.0 0.00 0.00 0.00 41 1014.5
20260506132346 50 49 0.0 0.0 0.00 0.00 0.00 41 1014.5
20260506131429 50 35 0.0 0.0 0.00 0.00 0.00 41 1014.5
20260506130528 50 44 0.0 0.0 0.00 0.00 0.00 40 1014.5
20260506125530 50 41 0.0 0.0 0.00 0.00 0.00 40 1014.5
20260506124532 49 11 0.0 0.0 0.00 0.00 0.00 40 1014.4
20260506123530 49 14 0.0 0.0 0.00 0.00 0.00 40 1014.4
20260506122531 49 37 0.0 0.0 0.00 0.00 0.00 40 1014.4
20260506121531 49 19 0.0 0.0 0.00 0.00 0.00 40 1014.3
20260506120629 49 27 0.0 0.0 0.00 0.00 0.00 39 1014.2
20260506115629 49 13 0.0 0.0 0.00 0.00 0.00 40 1014.1
20260506114645 49 15 0.0 0.0 0.00 0.00 0.00 40 1013.9
20260506113731 49 26 0.0 0.0 0.00 0.00 0.00 40 1013.9
20260506112731 49 17 0.0 0.0 0.00 0.00 0.00 40 1013.9
20260506104831 49 26 0.0 0.0 0.00 0.00 0.00 41 1013.8
20260506103830 49 33 0.0 0.0 0.00 0.00 0.00 41 1013.8
20260506102832 49 16 0.0 0.0 0.00 0.00 0.00 41 1013.7
20260506100930 49 23 0.0 0.0 0.00 0.00 0.00 41 1013.6
20260506095931 49 21 0.0 0.0 0.00 0.00 0.00 41 1013.5
20260506094946 49 16 0.0 0.0 0.00 0.00 0.00 41 1013.4
20260506093931 48 32 0.0 0.0 0.00 0.00 0.00 40 1013.4
20260506093831 48 12 0.0 0.0 0.00 0.00 0.00 40 1013.4
20260506092844 48 24 0.0 0.0 0.00 0.00 0.00 40 1013.4
20260506091830 48 10 0.0 0.0 0.00 0.00 0.00 40 1013.4
20260506090828 48 46 0.0 0.0 0.00 0.00 0.00 40 1013.3
20260506085832 48 14 0.0 0.0 0.00 0.00 0.00 40 1013.3
20260506084829 48 21 0.0 0.0 0.00 0.00 0.00 40 1013.0
20260506083831 48 20 0.0 0.0 0.00 0.00 0.00 40 1013.2
20260506080929 48 45 0.0 0.0 0.00 0.00 0.00 40 1013.1
20260506073031 47 27 0.0 0.0 0.00 0.00 0.00 40 1012.9
20260506072129 47 33 0.0 0.0 0.00 0.00 0.00 39 1012.9
20260506071131 47 51 0.0 0.0 0.00 0.00 0.00 40 1012.9
20260506070228 47 37 0.0 0.0 0.00 0.00 0.00 40 1012.9
20260506062329 47 20 0.0 0.0 0.00 0.00 0.00 40 1012.6
20260506061330 47 42 0.0 0.0 0.00 0.00 0.00 40 1012.5
20260506060345 47 10 0.0 0.0 0.00 0.00 0.00 40 1012.3
20260506043631 48 12 0.0 0.0 0.00 0.00 0.00 40 1012.3
20260506042632 48 1 0.0 0.0 0.00 0.00 0.00 40 1012.2
20260506041631 48 2 0.0 0.0 0.00 0.00 0.00 40 1012.2
20260506040629 48 359 0.0 0.0 0.00 0.00 0.00 40 1012.3
20260506035629 48 1 0.0 0.0 0.00 0.00 0.00 40 1012.3
20260506034728 48 4 0.0 0.0 0.00 0.00 0.00 40 1012.3
20260506033729 48 353 0.0 0.0 0.00 0.00 0.00 40 1012.4
20260506032730 48 353 0.0 0.0 0.00 0.00 0.00 40 1012.5
20260506031729 48 357 0.0 0.0 0.00 0.00 0.00 40 1012.5
20260506030730 48 350 0.0 0.0 0.00 0.00 0.00 40 1012.7
20260506025829 48 356 0.0 0.0 0.00 0.00 0.00 40 1012.5
20260506024831 48 343 0.0 0.0 0.00 0.00 0.00 40 1012.6
20260506023832 48 7 0.0 0.0 0.00 0.00 0.00 40 1012.6
20260506022830 48 355 0.0 0.0 0.00 0.00 0.00 40 1012.7
20260506020832 48 353 0.0 0.0 0.00 0.00 0.00 40 1013.0
20260506015829 48 358 0.0 0.0 0.00 0.00 0.00 40 1013.0
20260506013847 48 353 0.0 0.0 0.00 0.00 0.00 40 1013.1
20260506012931 48 3 0.0 0.0 0.00 0.00 0.00 40 1013.1
20260506011945 47 2 0.0 0.0 0.00 0.00 0.00 40 1013.3
20260506010929 48 352 0.0 0.0 0.00 0.00 0.00 40 1013.2
20260506005930 48 10 0.0 0.0 0.00 0.00 0.00 40 1013.4
20260506003929 48 10 0.0 0.0 0.00 0.00 0.00 40 1013.7
20260506002929 48 14 0.0 0.0 0.00 0.00 0.00 40 1013.6
20260506001929 48 6 0.0 0.0 0.00 0.00 0.00 40 1013.6
20260506000845 48 20 0.0 0.0 0.00 0.00 0.00 40 1013.7
20260505235930 48 1 0.0 0.0 0.00 0.00 0.00 40 1013.8
20260505235029 48 31 0.0 0.0 0.00 0.00 0.00 40 1013.9
20260505234029 48 17 0.0 0.0 0.00 0.00 0.00 40 1013.9
20260505233031 48 17 0.0 0.0 0.00 0.00 0.00 40 1014.0
20260505232029 48 13 0.0 0.0 0.00 0.00 0.00 40 1014.0
20260505231030 48 7 0.0 0.0 0.00 0.00 0.00 40 1014.1
20260505230030 48 20 0.0 0.0 0.00 0.00 0.00 40 1014.2
20260505224046 48 27 0.0 0.0 0.00 0.00 0.00 40 1014.2
20260505223130 48 5 0.0 0.0 0.00 0.00 0.00 40 1014.4
20260505220240 48 11 0.0 0.0 0.00 0.00 0.00 40 1014.5
20260505215326 49 12 0.0 0.0 0.00 0.00 0.00 40 1014.6
20260505214325 49 19 0.0 0.0 0.00 0.00 0.00 40 1014.6
20260505213326 48 9 0.0 0.0 0.00 0.00 0.00 40 1014.6
20260505212325 49 18 0.0 0.0 0.00 0.00 0.00 40 1014.7
20260505211425 49 17 0.0 0.0 0.00 0.00 0.00 40 1014.6
20260505210426 49 13 0.0 0.0 0.00 0.00 0.00 40 1014.8